Regional Weather Roundup
Issued by NWS Goodland, KS

Home | Current Version | Previous Version | Text Only | Print | Product List | Glossary Off
Versions: 1 2 3 4 5 6 7 8 9 10 11 12 13 14 15 16 17 18 19 20 21 22 23 24 25 26 27 28 29 30 31 32 33 34 35 36 37 38 39 40 41 42 43 44 45 46 47 48 49 50

000
ASUS43 KGLD 300508
RWRGLD

GOODLAND FORECAST AREA HOURLY WEATHER ROUNDUP
NATIONAL WEATHER SERVICE GOODLAND KS
1100 PM MDT MON JUN 29 2015

...OFFICIAL OBSERVATIONS...

CITY           SKY/WX    TMP DP  RH WIND       PRES   REMARKS
GOODLAND KS    CLEAR     70  56  61 SW9       30.10S
HILL CITY KS   CLEAR     71  54  54 CALM      30.01S
IMPERIAL NEB   CLEAR     69  58  67 W3        30.07S
MCCOOK NEB     CLEAR     75  59  57 S3        30.03R
AKRON CO       CLEAR     70  54  56 S6        30.18S
BURLINGTON CO  CLEAR     64  54  69 S8        30.16R
LIMON CO       CLEAR     60  58  92 CALM      30.24S
$$

...UNOFFICIAL OBSERVATIONS...

CITY           SKY/WX    TMP DP  RH WIND       PRES   REMARKS
COLBY KS       CLEAR     70  63  78 W7        30.09R
GOVE KS          N/A     68  32  26 MISG        N/A
NORTON KS      CLEAR     70  54  56 CALM      30.01S
SHARON SPRINGS   N/A     68  55  62 SW7         N/A
KIT CARSON CO    N/A     63  51  66 MISG        N/A
YUMA CO          N/A     66  57  72 CALM        N/A
$$



USA.gov is the U.S. government's official web portal to all federal, state and local government web resources and services.